Location: Cassano d�Adda
(45.5333°N, 9.5167°E)
Time: 02:51:12
(UTC+00:00)

NOAA 11 - Pass Details

Date: 08 December 2019
Orbit: 833 x 849 km, 98.4° (Epoch: 22 January)

Event Time Altitude Azimuth Distance (km) Brightness Sun altitude
Rises 17:30:54 0° 148° (SSE) 3,379 7.2 -18.9°
Reaches altitude 10° 17:33:18 10° 144° (SE) 2,451 6.4 -19.3°
Maximum altitude 17:38:32 51° 69° (ENE) 1,057 4.3 -20.2°
Drops below altitude 10° 17:43:50 10° 356° (N) 2,477 6.6 -21.1°
Sets 17:46:16 0° 351° (N) 3,419 7.3 -21.5°
